Norman, OK

5:09 PM CST on December 13, 2017 (GMT -0600)
Univ. Of Oklahoma Westheimer

Weather History for KOUN - February, 2013

Change the Weather History Date:

Sunday, February 10, 2013

  Actual Average Record
Temperature  
Mean Temperature 48 °F -  
Max Temperature 60 °F 60 °F 80 °F (1954)
Min Temperature 37 °F 28 °F 0 °F (2011)
Degree Days  
Heating Degree Days 16    
Moisture  
Dew Point 36 °F    
Average Humidity 62    
Maximum Humidity 100    
Minimum Humidity 36    
Precipitation  
Precipitation 0.08 in - - ()
Sea Level Pressure  
Sea Level Pressure 29.81 in    
Wind  
Wind Speed 12 mph (West)    
Max Wind Speed 18 mph    
Max Gust Speed 24 mph    
Visibility 9 miles    
Events Rain    
Averages and records for this station are not official NWS values.
T = Trace of Precipitation, MM = Missing Value Source: NWS Daily Summary

Daily Weather History Graph

Daily Weather History Graph

Search for Another Location

Airport or City:

Trip Planner

Search our weather history database for the weather conditions in past years. The results will help you decide how hot, cold, wet, or windy it might be!

Date:

Astronomy

Feb. 10, 2013 Rise Set
Actual Time 7:21 AM CST 6:07 PM CST
Civil Twilight 6:54 AM CST 6:33 PM CST
Nautical Twilight 6:24 AM CST 7:03 PM CST
Astronomical Twilight 5:55 AM CST 7:33 PM CST
Moon 7:14 AM CST (2/10) 6:55 PM CST (2/10)
Length of Visible Light 11h 39m
Length of Day
10h 46m
New Moon, 0% of the Moon is Illuminated
Feb 10
New Moon
Feb 17
First Quarter
Feb 25
Full
Mar 4
Last Quarter
Mar 11
New

Hourly Weather History & Observations

Time (CST) Temp. Windchill Dew Point Humidity Pressure Visibility Wind Dir Wind Speed Gust Speed Precip Events Conditions
12:15 AM 46.4 °F 39.2 °F 46.4 °F 100% 29.73 in 2.0 mi South 18.4 mph - 0.01 in Rain Light Rain
12:35 AM 46.4 °F 40.1 °F 46.4 °F 100% 29.72 in 3.0 mi South 15.0 mph 23.0 mph 0.02 in Rain Light Rain
12:55 AM 48.2 °F - 48.2 °F 100% 29.70 in 4.0 mi SSE 12.7 mph - 0.03 in Rain Light Rain
1:15 AM 48.2 °F - 48.2 °F 100% 29.67 in 4.0 mi SSE 11.5 mph - N/A   Overcast
1:35 AM 48.2 °F - 48.2 °F 100% 29.67 in 3.0 mi SSE 11.5 mph 17.3 mph N/A   Overcast
1:55 AM 50.0 °F - 50.0 °F 100% 29.69 in 2.5 mi SSW 12.7 mph - 0.03 in Rain Light Rain
2:15 AM 50.0 °F - 50.0 °F 100% 29.69 in 2.5 mi SSW 10.4 mph - 0.01 in   Drizzle
2:35 AM 51.8 °F - 51.8 °F 100% 29.68 in 4.0 mi SSW 12.7 mph 17.3 mph 0.02 in   Light Drizzle
2:55 AM 51.8 °F - 51.8 °F 100% 29.68 in 10.0 mi SSW 9.2 mph - 0.02 in   Overcast
3:15 AM 51.8 °F - 51.8 °F 100% 29.68 in 10.0 mi SSW 10.4 mph - N/A   Overcast
3:35 AM 50.0 °F - 50.0 °F 100% 29.67 in 10.0 mi SSW 8.1 mph - N/A   Overcast
3:55 AM 50.0 °F - 50.0 °F 100% 29.67 in 10.0 mi SW 6.9 mph - N/A   Overcast
4:15 AM 48.2 °F - 48.2 °F 100% 29.68 in 10.0 mi SSW 8.1 mph - N/A   Scattered Clouds
4:35 AM 50.0 °F - 44.6 °F 82% 29.69 in 10.0 mi SW 10.4 mph - N/A   Scattered Clouds
4:55 AM 50.0 °F - 42.8 °F 76% 29.70 in 10.0 mi SW 10.4 mph - N/A   Scattered Clouds
5:15 AM 46.4 °F 41.5 °F 41.0 °F 81% 29.71 in 10.0 mi SW 10.4 mph - N/A   Clear
5:35 AM 46.4 °F 41.9 °F 37.4 °F 71% 29.71 in 10.0 mi SW 9.2 mph - N/A   Clear
5:55 AM 46.4 °F 41.5 °F 35.6 °F 66% 29.70 in 10.0 mi SW 10.4 mph - N/A   Clear
6:15 AM 44.6 °F 39.7 °F 35.6 °F 71% 29.72 in 10.0 mi SW 9.2 mph - N/A   Clear
6:35 AM 44.6 °F 39.7 °F 35.6 °F 71% 29.72 in 10.0 mi SW 9.2 mph - N/A   Clear
6:55 AM 42.8 °F 37.5 °F 33.8 °F 70% 29.72 in 10.0 mi SW 9.2 mph - N/A   Clear
7:15 AM 42.8 °F 37.0 °F 33.8 °F 70% 29.72 in 10.0 mi SW 10.4 mph - N/A   Clear
7:35 AM 42.8 °F 36.2 °F 32.0 °F 66% 29.73 in 10.0 mi SW 12.7 mph - N/A   Clear
7:55 AM 42.8 °F 36.2 °F 32.0 °F 66% 29.73 in 10.0 mi SW 12.7 mph 17.3 mph N/A   Clear
8:15 AM 42.8 °F 35.8 °F 32.0 °F 66% 29.74 in 10.0 mi SW 13.8 mph 19.6 mph N/A   Clear
8:35 AM 44.6 °F 38.8 °F 32.0 °F 61% 29.74 in 10.0 mi WSW 11.5 mph 18.4 mph N/A   Clear
8:55 AM 44.6 °F 37.8 °F 32.0 °F 61% 29.76 in 10.0 mi WSW 15.0 mph 20.7 mph N/A   Clear
9:15 AM 46.4 °F 40.4 °F 32.0 °F 57% 29.76 in 10.0 mi WSW 13.8 mph 17.3 mph N/A   Clear
9:35 AM 48.2 °F - 32.0 °F 54% 29.77 in 10.0 mi WSW 16.1 mph 21.9 mph N/A   Clear
9:55 AM 50.0 °F - 32.0 °F 50% 29.78 in 10.0 mi West 13.8 mph 20.7 mph N/A   Clear
10:15 AM 50.0 °F - 32.0 °F 50% 29.79 in 10.0 mi West 11.5 mph - N/A   Clear
10:35 AM 50.0 °F - 32.0 °F 50% 29.80 in 10.0 mi West 11.5 mph 21.9 mph N/A   Clear
10:55 AM 50.0 °F - 32.0 °F 50% 29.81 in 10.0 mi WSW 11.5 mph 17.3 mph N/A   Clear
11:15 AM 51.8 °F - 33.8 °F 50% 29.81 in 10.0 mi West 12.7 mph 16.1 mph N/A   Clear
11:35 AM 53.6 °F - 33.8 °F 47% 29.81 in 10.0 mi West 13.8 mph 19.6 mph N/A   Clear
11:55 AM 53.6 °F - 33.8 °F 47% 29.82 in 10.0 mi West 11.5 mph 19.6 mph N/A   Clear
12:15 PM 55.4 °F - 33.8 °F 44% 29.81 in 10.0 mi WNW 13.8 mph 18.4 mph N/A   Clear
12:35 PM 53.6 °F - 32.0 °F 44% 29.81 in 10.0 mi West 12.7 mph - N/A   Clear
12:55 PM 55.4 °F - 32.0 °F 41% 29.80 in 10.0 mi WNW 18.4 mph 23.0 mph N/A   Clear
1:15 PM 57.2 °F - 33.8 °F 41% 29.80 in 10.0 mi West 8.1 mph 11.5 mph N/A   Clear
1:35 PM 59.0 °F - 33.8 °F 39% 29.80 in 10.0 mi West 10.4 mph - N/A   Clear
1:55 PM 59.0 °F - 33.8 °F 39% 29.80 in 10.0 mi West 8.1 mph - N/A   Clear
2:15 PM 59.0 °F - 33.8 °F 39% 29.79 in 10.0 mi West 13.8 mph 19.6 mph N/A   Clear
2:35 PM 60.8 °F - 33.8 °F 36% 29.80 in 10.0 mi West 15.0 mph 18.4 mph N/A   Clear
2:55 PM 59.0 °F - 33.8 °F 39% 29.80 in 10.0 mi West 9.2 mph - N/A   Clear
3:15 PM 60.8 °F - 35.6 °F 39% 29.81 in 10.0 mi West 9.2 mph - N/A   Clear
3:35 PM 60.8 °F - 35.6 °F 39% 29.81 in 10.0 mi West 11.5 mph - N/A   Clear
3:55 PM 60.8 °F - 33.8 °F 36% 29.82 in 10.0 mi West 13.8 mph 24.2 mph N/A   Clear
4:15 PM 59.0 °F - 33.8 °F 39% 29.83 in 10.0 mi WSW 11.5 mph - N/A   Clear
4:35 PM 59.0 °F - 33.8 °F 39% 29.84 in 10.0 mi West 10.4 mph 18.4 mph N/A   Clear
4:55 PM 59.0 °F - 32.0 °F 36% 29.84 in 10.0 mi WNW 9.2 mph - N/A   Clear
5:15 PM 59.0 °F - 32.0 °F 36% 29.86 in 10.0 mi WNW 11.5 mph - N/A   Clear
5:35 PM 57.2 °F - 32.0 °F 38% 29.87 in 10.0 mi WNW 11.5 mph - N/A   Clear
5:55 PM 55.4 °F - 32.0 °F 41% 29.88 in 10.0 mi WNW 9.2 mph - N/A   Clear
6:15 PM 51.8 °F - 32.0 °F 47% 29.90 in 10.0 mi WNW 5.8 mph - N/A   Clear
6:35 PM 51.8 °F - 32.0 °F 47% 29.91 in 10.0 mi WNW 5.8 mph - N/A   Clear
6:55 PM 50.0 °F - 30.2 °F 47% 29.94 in 10.0 mi NW 9.2 mph - N/A   Clear
7:15 PM 48.2 °F - 30.2 °F 50% 29.95 in 10.0 mi NNW 10.4 mph - N/A   Clear
7:35 PM 48.2 °F - 30.2 °F 50% 29.97 in 10.0 mi NNW 11.5 mph - N/A   Clear
7:55 PM 46.4 °F 41.9 °F 30.2 °F 53% 29.98 in 10.0 mi NNW 9.2 mph - N/A   Clear
8:35 PM 44.6 °F 42.2 °F 28.4 °F 53% 30.01 in 10.0 mi North 4.6 mph - N/A   Clear
8:55 PM 44.6 °F 42.2 °F 28.4 °F 53% 30.01 in 10.0 mi North 4.6 mph - N/A   Clear
9:15 PM 42.8 °F 38.6 °F 28.4 °F 57% 30.02 in 10.0 mi North 6.9 mph - N/A   Clear
9:35 PM 42.8 °F 37.5 °F 30.2 °F 61% 30.03 in 10.0 mi North 9.2 mph - N/A   Clear
9:55 PM 42.8 °F 37.0 °F 30.2 °F 61% 30.04 in 10.0 mi North 10.4 mph - N/A   Clear
10:15 PM 42.8 °F 38.0 °F 30.2 °F 61% 30.04 in 10.0 mi North 8.1 mph - N/A   Clear
10:55 PM 37.4 °F 32.1 °F 28.4 °F 70% 30.06 in 10.0 mi NNE 6.9 mph - N/A   Clear
11:15 PM 37.4 °F 30.8 °F 30.2 °F 75% 30.05 in 10.0 mi NNE 9.2 mph - N/A   Clear
11:35 PM 37.4 °F 31.4 °F 28.4 °F 70% 30.05 in 10.0 mi NNE 8.1 mph - N/A   Clear
11:55 PM 37.4 °F 32.8 °F 28.4 °F 70% 30.06 in 10.0 mi NNE 5.8 mph - N/A   Clear